Location: Moscow
(38.8570°N, 84.2291°W)
Time: 03:57:31
(UTC+00:00)

Aureole 3 Rocket - Visible Passes

Search period start: 19 February 2026 00:00
Search period end: 01 March 2026 00:00
Orbit: 397 x 1689 km, 82.5° (Epoch: 18 February)

Date Brightness Start Highest point End Pass type
(mag) Time Alt. Az. Time Alt. Az. Time Alt. Az.
19 Feb 6.0 11:30:12 10° SSE 11:37:50 40° E 11:43:41 10° NNE visible
20 Feb 5.8 00:26:26 10° NW 00:28:11 14° W 00:29:54 10° WSW visible
20 Feb 7.2 10:33:03 10° ESE 10:36:55 15° E 10:40:21 10° NE visible
21 Feb 6.0 11:15:15 10° SSE 11:22:29 37° E 11:28:01 10° NNE visible
22 Feb 5.7 00:10:45 10° NW 00:12:35 15° W 00:14:27 10° SW visible
22 Feb 7.3 10:18:23 10° ESE 10:21:32 13° E 10:24:22 10° ENE visible
23 Feb 5.9 11:00:16 10° SSE 11:07:06 35° E 11:12:19 10° NNE visible
23 Feb 5.7 23:55:01 10° NW 23:56:59 16° W 23:59:00 10° SW visible
24 Feb 7.3 10:03:51 10° ESE 10:06:07 12° E 10:08:12 10° ENE visible
24 Feb 4.2 11:45:07 10° S 11:52:50 89° E 11:58:21 10° N visible
25 Feb 5.9 10:45:16 10° SSE 10:51:41 33° E 10:56:34 10° NNE visible
26 Feb 7.3 09:49:49 10° E 09:50:40 10° E 09:51:29 10° E visible
26 Feb 4.1 11:30:02 10° S 11:37:23 87° E 11:42:37 10° N visible
27 Feb 5.9 10:30:15 10° SSE 10:36:12 30° E 10:40:46 10° NNE visible
28 Feb 3.9 11:14:54 10° S 11:21:54 85° E 11:26:52 10° N visible
